| time (UTC) | temp F | wind direction | speed MPH | gust MPH | rain 1hr in | rain 24hr in | rain mn in | humidity % | barometer mb |
| 20260503211608 | 52 | 297 | 4.0 | 14.0 | 0.00 | 0.00 | 0.00 | 39 | 1006.1 |
| 20260503211103 | 52 | 344 | 2.0 | 16.0 | 0.00 | 0.00 | 0.00 | 40 | 1006.0 |
| 20260503210600 | 52 | 331 | 2.0 | 10.0 | 0.00 | 0.00 | 0.00 | 41 | 1005.8 |
| 20260503210056 | 52 | 41 | 3.0 | 13.0 | 0.00 | 0.00 | 0.00 | 40 | 1005.6 |
| 20260503205552 | 53 | 60 | 7.0 | 8.0 | 0.00 | 0.00 | 0.00 | 40 | 1005.6 |
| 20260503205049 | 52 | 52 | 5.0 | 17.0 | 0.00 | 0.00 | 0.00 | 40 | 1005.5 |
| 20260503204546 | 53 | 321 | 3.0 | 3.0 | 0.00 | 0.00 | 0.00 | 42 | 1005.5 |
| 20260503204043 | 53 | 259 | 4.0 | 4.0 | 0.00 | 0.00 | 0.00 | 40 | 1005.3 |
| 20260503203540 | 52 | 280 | 4.0 | 10.0 | 0.00 | 0.00 | 0.00 | 40 | 1005.4 |
| 20260503203037 | 53 | 344 | 5.0 | 6.0 | 0.00 | 0.00 | 0.00 | 41 | 1005.5 |
| 20260503202535 | 52 | 73 | 5.0 | 14.0 | 0.00 | 0.00 | 0.00 | 40 | 1005.3 |
| 20260503202033 | 53 | 56 | 3.0 | 13.0 | 0.00 | 0.00 | 0.00 | 39 | 1005.3 |
| 20260503201526 | 53 | 338 | 3.0 | 10.0 | 0.00 | 0.00 | 0.00 | 40 | 1005.3 |
| 20260503201022 | 53 | 307 | 13.0 | 15.0 | 0.00 | 0.00 | 0.00 | 39 | 1005.2 |
| 20260503200518 | 53 | 34 | 7.0 | 11.0 | 0.00 | 0.00 | 0.00 | 40 | 1005.0 |
| 20260503200015 | 53 | 327 | 3.0 | 19.0 | 0.00 | 0.00 | 0.00 | 40 | 1005.4 |
| 20260503195512 | 54 | 18 | 4.0 | 8.0 | 0.00 | 0.00 | 0.00 | 38 | 1005.0 |
| 20260503195009 | 54 | 234 | 4.0 | 14.0 | 0.00 | 0.00 | 0.00 | 40 | 1005.1 |
| 20260503194506 | 54 | 135 | 2.0 | 5.0 | 0.00 | 0.00 | 0.00 | 40 | 1005.3 |
| 20260503194001 | 53 | 188 | 0.0 | 11.0 | 0.00 | 0.00 | 0.00 | 40 | 1005.2 |
| 20260503193457 | 53 | 51 | 4.0 | 11.0 | 0.00 | 0.00 | 0.00 | 41 | 1005.1 |
| 20260503192952 | 53 | 57 | 1.0 | 5.0 | 0.00 | 0.00 | 0.00 | 42 | 1005.4 |
| 20260503192449 | 52 | 60 | 5.0 | 11.0 | 0.00 | 0.00 | 0.00 | 41 | 1005.2 |
| 20260503191944 | 52 | 30 | 4.0 | 6.0 | 0.00 | 0.00 | 0.00 | 43 | 1005.2 |
| 20260503191442 | 52 | 40 | 4.0 | 14.0 | 0.00 | 0.00 | 0.00 | 43 | 1005.1 |
| 20260503190938 | 52 | 0 | 2.0 | 15.0 | 0.00 | 0.00 | 0.00 | 43 | 1005.5 |
| 20260503190436 | 53 | 299 | 13.0 | 15.0 | 0.00 | 0.00 | 0.00 | 42 | 1005.4 |
| 20260503185933 | 53 | 307 | 5.0 | 8.0 | 0.00 | 0.00 | 0.00 | 44 | 1005.1 |
| 20260503185429 | 53 | 293 | 6.0 | 12.0 | 0.00 | 0.00 | 0.00 | 44 | 1005.2 |
| 20260503184928 | 53 | 279 | 5.0 | 11.0 | 0.00 | 0.00 | 0.00 | 44 | 1005.4 |
| 20260503184426 | 52 | 71 | 4.0 | 6.0 | 0.00 | 0.00 | 0.00 | 44 | 1005.3 |
| 20260503183922 | 52 | 300 | 13.0 | 15.0 | 0.00 | 0.00 | 0.00 | 44 | 1005.5 |
| 20260503183418 | 52 | 103 | 5.0 | 5.0 | 0.00 | 0.00 | 0.00 | 46 | 1005.3 |
| 20260503182915 | 52 | 319 | 9.0 | 13.0 | 0.00 | 0.00 | 0.00 | 45 | 1005.3 |
| 20260503182414 | 52 | 313 | 6.0 | 12.0 | 0.00 | 0.00 | 0.00 | 47 | 1005.3 |
| 20260503181911 | 52 | 86 | 3.0 | 17.0 | 0.00 | 0.00 | 0.00 | 47 | 1005.4 |
| 20260503181408 | 52 | 11 | 0.0 | 7.0 | 0.00 | 0.00 | 0.00 | 48 | 1005.4 |
| 20260503180904 | 52 | 317 | 2.0 | 5.0 | 0.00 | 0.00 | 0.00 | 47 | 1005.4 |
| 20260503180403 | 52 | 13 | 2.0 | 6.0 | 0.00 | 0.00 | 0.00 | 46 | 1005.1 |
| 20260503175859 | 53 | 37 | 3.0 | 9.0 | 0.00 | 0.00 | 0.00 | 46 | 1005.4 |
| 20260503175357 | 52 | 37 | 2.0 | 7.0 | 0.00 | 0.00 | 0.00 | 48 | 1005.4 |
| 20260503174852 | 52 | 47 | 8.0 | 11.0 | 0.00 | 0.00 | 0.00 | 47 | 1005.4 |
| 20260503174351 | 51 | 313 | 2.0 | 6.0 | 0.00 | 0.00 | 0.00 | 50 | 1005.3 |
| 20260503173850 | 50 | 26 | 2.0 | 15.0 | 0.00 | 0.00 | 0.00 | 52 | 1005.5 |
| 20260503173347 | 50 | 356 | 3.0 | 11.0 | 0.00 | 0.00 | 0.00 | 52 | 1005.5 |
| 20260503172844 | 50 | 326 | 4.0 | 11.0 | 0.00 | 0.00 | 0.00 | 52 | 1005.5 |
| 20260503172342 | 50 | 298 | 5.0 | 11.0 | 0.00 | 0.00 | 0.00 | 51 | 1005.2 |
| 20260503171837 | 51 | 282 | 6.0 | 9.0 | 0.00 | 0.00 | 0.00 | 52 | 1005.4 |
| 20260503171334 | 51 | 61 | 4.0 | 7.0 | 0.00 | 0.00 | 0.00 | 51 | 1005.5 |
| 20260503170832 | 51 | 314 | 2.0 | 5.0 | 0.00 | 0.00 | 0.00 | 51 | 1005.3 |
| 20260503170328 | 51 | 25 | 2.0 | 7.0 | 0.00 | 0.00 | 0.00 | 51 | 1005.2 |
| 20260503150720 | 46 | 74 | 1.0 | 7.0 | 0.00 | 0.00 | 0.00 | 71 | 1005.7 |
| 20260503150217 | 46 | 283 | 8.0 | 9.0 | 0.00 | 0.00 | 0.00 | 72 | 1005.7 |
| 20260503140141 | 45 | 49 | 2.0 | 3.0 | 0.00 | 0.00 | 0.00 | 78 | 1005.7 |
| 20260503131110 | 45 | 54 | 7.0 | 7.0 | 0.00 | 0.00 | 0.00 | 79 | 1005.7 |
| 20260503130608 | 45 | 34 | 2.0 | 12.0 | 0.00 | 0.00 | 0.00 | 79 | 1005.7 |
| 20260503130106 | 45 | 342 | 1.0 | 5.0 | 0.00 | 0.00 | 0.00 | 79 | 1005.7 |
| 20260503110458 | 41 | 69 | 2.0 | 2.0 | 0.00 | 0.00 | 0.00 | 84 | 1006.2 |
| 20260503090349 | 42 | 291 | 0.0 | 2.0 | 0.00 | 0.00 | 0.00 | 84 | 1006.6 |
| 20260503081317 | 42 | 263 | 0.0 | 2.0 | 0.00 | 0.00 | 0.00 | 87 | 1007.1 |
| 20260503080813 | 42 | 89 | 0.0 | 2.0 | 0.00 | 0.00 | 0.00 | 87 | 1007.3 |
| 20260503080311 | 43 | 119 | 0.0 | 1.0 | 0.00 | 0.00 | 0.00 | 87 | 1007.4 |
| 20260503072747 | 43 | 303 | 0.0 | 1.0 | 0.00 | 0.00 | 0.00 | 88 | 1007.7 |
| 20260503072244 | 43 | 30 | 1.0 | 2.0 | 0.00 | 0.00 | 0.00 | 88 | 1008.0 |
| 20260503071740 | 43 | 89 | 0.0 | 0.0 | 0.00 | 0.00 | 0.00 | 88 | 1007.7 |
| 20260503071237 | 43 | 321 | 0.0 | 0.0 | 0.00 | 0.00 | 0.00 | 88 | 1007.6 |
| 20260503070733 | 43 | 60 | 0.0 | 0.0 | 0.00 | 0.00 | 0.00 | 88 | 1007.6 |
| 20260503070232 | 43 | 329 | 0.0 | 2.0 | 0.00 | 0.00 | 0.00 | 87 | 1007.6 |
| 20260503060156 | 45 | 343 | 1.0 | 3.0 | 0.00 | 0.00 | 0.00 | 84 | 1008.6 |
| 20260503054643 | 45 | 283 | 2.0 | 2.0 | 0.00 | 0.00 | 0.00 | 82 | 1009.0 |
| 20260503054141 | 45 | 294 | 2.0 | 3.0 | 0.00 | 0.00 | 0.00 | 83 | 1008.7 |
| 20260503053639 | 45 | 320 | 2.0 | 4.0 | 0.00 | 0.00 | 0.00 | 82 | 1008.9 |
| 20260503053137 | 45 | 124 | 0.0 | 2.0 | 0.00 | 0.00 | 0.00 | 83 | 1008.8 |
| 20260503052633 | 45 | 85 | 2.0 | 2.0 | 0.00 | 0.00 | 0.00 | 83 | 1008.7 |
| 20260503052130 | 45 | 53 | 1.0 | 2.0 | 0.00 | 0.00 | 0.00 | 82 | 1008.8 |
| 20260503051625 | 45 | 72 | 1.0 | 2.0 | 0.00 | 0.00 | 0.00 | 81 | 1008.9 |
| 20260503051123 | 45 | 19 | 2.0 | 2.0 | 0.00 | 0.00 | 0.00 | 81 | 1008.9 |
| 20260503050619 | 45 | 300 | 1.0 | 4.0 | 0.00 | 0.00 | 0.00 | 80 | 1009.0 |
| 20260503050116 | 45 | 59 | 0.0 | 3.0 | 0.00 | 0.00 | 0.00 | 81 | 1009.1 |
| 20260503045614 | 45 | 42 | 0.0 | 2.0 | 0.00 | 0.00 | 0.00 | 80 | 1008.9 |
| 20260503045110 | 45 | 166 | 2.0 | 3.0 | 0.00 | 0.00 | 0.00 | 82 | 1009.2 |
| 20260503044607 | 45 | 91 | 1.0 | 3.0 | 0.00 | 0.00 | 0.00 | 83 | 1009.1 |
| 20260503044105 | 45 | 76 | 0.0 | 1.0 | 0.00 | 0.00 | 0.00 | 82 | 1009.0 |
| 20260503043600 | 45 | 66 | 0.0 | 2.0 | 0.00 | 0.00 | 0.00 | 83 | 1009.2 |
| 20260503043058 | 45 | 321 | 0.0 | 1.0 | 0.00 | 0.00 | 0.00 | 81 | 1009.5 |
| 20260503042554 | 45 | 77 | 1.0 | 1.0 | 0.00 | 0.00 | 0.00 | 80 | 1009.4 |
| 20260503042050 | 46 | 52 | 0.0 | 1.0 | 0.00 | 0.00 | 0.00 | 80 | 1009.8 |
| 20260503041547 | 46 | 135 | 0.0 | 1.0 | 0.00 | 0.00 | 0.00 | 81 | 1009.5 |
| 20260503041045 | 46 | 74 | 0.0 | 2.0 | 0.00 | 0.00 | 0.00 | 81 | 1009.6 |
| 20260503040542 | 46 | 68 | 1.0 | 2.0 | 0.00 | 0.00 | 0.00 | 82 | 1009.5 |
| 20260503040039 | 46 | 74 | 0.0 | 2.0 | 0.00 | 0.06 | 0.06 | 81 | 1009.7 |
| 20260503035536 | 45 | 71 | 0.0 | 1.0 | 0.00 | 0.06 | 0.06 | 87 | 1009.7 |
| 20260503035034 | 45 | 60 | 0.0 | 2.0 | 0.00 | 0.06 | 0.06 | 89 | 1009.6 |
| 20260503034531 | 46 | 124 | 0.0 | 2.0 | 0.00 | 0.06 | 0.06 | 92 | 1009.6 |
| 20260503034028 | 46 | 160 | 0.0 | 2.0 | 0.00 | 0.06 | 0.06 | 93 | 1009.6 |
| 20260503033525 | 46 | 224 | 0.0 | 0.0 | 0.00 | 0.06 | 0.06 | 94 | 1009.4 |
| 20260503033023 | 46 | 326 | 1.0 | 1.0 | 0.00 | 0.06 | 0.06 | 96 | 1009.6 |
| 20260503032521 | 46 | 93 | 0.0 | 1.0 | 0.00 | 0.06 | 0.06 | 96 | 1009.7 |
| 20260503032019 | 46 | 114 | 0.0 | 2.0 | 0.00 | 0.06 | 0.06 | 96 | 1009.7 |
| 20260503031517 | 46 | 116 | 0.0 | 1.0 | 0.00 | 0.06 | 0.06 | 96 | 1009.8 |
| 20260503031013 | 46 | 55 | 0.0 | 0.0 | 0.00 | 0.06 | 0.06 | 96 | 1009.7 |
| 20260503030509 | 46 | 55 | 0.0 | 0.0 | 0.00 | 0.06 | 0.06 | 96 | 1009.7 |
| 20260503030007 | 46 | 76 | 0.0 | 2.0 | 0.00 | 0.06 | 0.06 | 96 | 1009.5 |
| 20260503025503 | 46 | 72 | 0.0 | 1.0 | 0.00 | 0.06 | 0.06 | 96 | 1009.7 |
| 20260503025001 | 46 | 69 | 0.0 | 0.0 | 0.00 | 0.06 | 0.06 | 95 | 1009.9 |
| 20260503024457 | 47 | 66 | 0.0 | 1.0 | 0.00 | 0.06 | 0.06 | 95 | 1009.6 |
| 20260503023954 | 47 | 89 | 0.0 | 1.0 | 0.00 | 0.06 | 0.06 | 95 | 1009.6 |
| 20260503023451 | 47 | 32 | 0.0 | 0.0 | 0.00 | 0.06 | 0.06 | 95 | 1009.6 |
| 20260503022948 | 47 | 76 | 0.0 | 0.0 | 0.00 | 0.06 | 0.06 | 95 | 1009.6 |
| 20260503022443 | 47 | 66 | 0.0 | 0.0 | 0.00 | 0.06 | 0.06 | 95 | 1009.6 |
| 20260503021939 | 47 | 290 | 0.0 | 1.0 | 0.00 | 0.06 | 0.06 | 95 | 1009.5 |
| 20260503021436 | 47 | 304 | 2.0 | 2.0 | 0.00 | 0.06 | 0.06 | 95 | 1009.6 |
| 20260503020933 | 47 | 76 | 0.0 | 1.0 | 0.00 | 0.06 | 0.06 | 94 | 1009.7 |
| 20260503020431 | 47 | 109 | 0.0 | 1.0 | 0.00 | 0.06 | 0.06 | 94 | 1009.8 |
| 20260503015927 | 48 | 89 | 0.0 | 1.0 | 0.00 | 0.06 | 0.06 | 94 | 1009.8 |
| 20260503015424 | 48 | 47 | 1.0 | 1.0 | 0.00 | 0.06 | 0.06 | 94 | 1009.8 |
| 20260503014920 | 48 | 165 | 1.0 | 2.0 | 0.00 | 0.06 | 0.06 | 94 | 1010.1 |
| 20260503014417 | 48 | 66 | 0.0 | 1.0 | 0.00 | 0.06 | 0.06 | 94 | 1009.8 |
| 20260503013915 | 48 | 116 | 0.0 | 0.0 | 0.00 | 0.06 | 0.06 | 93 | 1010.1 |
| 20260503013412 | 48 | 64 | 0.0 | 0.0 | 0.00 | 0.06 | 0.06 | 93 | 1009.9 |
| 20260503012909 | 48 | 55 | 0.0 | 0.0 | 0.00 | 0.06 | 0.06 | 93 | 1009.9 |
| 20260503012407 | 48 | 114 | 1.0 | 2.0 | 0.00 | 0.06 | 0.06 | 93 | 1009.9 |
| 20260503011903 | 48 | 94 | 2.0 | 2.0 | 0.00 | 0.06 | 0.06 | 93 | 1009.8 |
| 20260503011400 | 48 | 38 | 0.0 | 1.0 | 0.00 | 0.06 | 0.06 | 93 | 1009.7 |
| 20260503010857 | 48 | 166 | 0.0 | 1.0 | 0.00 | 0.06 | 0.06 | 93 | 1009.8 |
| 20260503010353 | 48 | 60 | 0.0 | 1.0 | 0.00 | 0.06 | 0.06 | 93 | 1009.7 |
| 20260503005850 | 48 | 59 | 0.0 | 0.0 | 0.00 | 0.06 | 0.06 | 92 | 1009.8 |
| 20260503005348 | 48 | 89 | 0.0 | 1.0 | 0.00 | 0.06 | 0.06 | 92 | 1009.7 |
| 20260503004844 | 48 | 76 | 0.0 | 1.0 | 0.00 | 0.06 | 0.06 | 91 | 1009.6 |
| 20260503004342 | 49 | 60 | 1.0 | 2.0 | 0.00 | 0.06 | 0.06 | 91 | 1009.5 |
| 20260503003839 | 49 | 65 | 2.0 | 3.0 | 0.00 | 0.06 | 0.06 | 91 | 1009.5 |
| 20260503003336 | 49 | 72 | 1.0 | 1.0 | 0.00 | 0.06 | 0.06 | 90 | 1009.5 |
| 20260503002833 | 49 | 76 | 0.0 | 0.0 | 0.00 | 0.06 | 0.06 | 90 | 1009.6 |
| 20260503002330 | 49 | 110 | 0.0 | 0.0 | 0.00 | 0.06 | 0.06 | 90 | 1009.4 |
| 20260503001826 | 50 | 114 | 0.0 | 1.0 | 0.00 | 0.06 | 0.06 | 89 | 1009.3 |
| 20260503001322 | 50 | 89 | 0.0 | 2.0 | 0.00 | 0.06 | 0.06 | 89 | 1009.4 |
| 20260503000820 | 50 | 77 | 1.0 | 1.0 | 0.00 | 0.06 | 0.06 | 88 | 1009.3 |
| 20260503000319 | 50 | 141 | 0.0 | 0.0 | 0.00 | 0.06 | 0.06 | 88 | 1009.3 |
| 20260502235814 | 50 | 150 | 0.0 | 0.0 | 0.00 | 0.06 | 0.06 | 88 | 1009.2 |
| 20260502235312 | 50 | 89 | 0.0 | 1.0 | 0.00 | 0.06 | 0.06 | 87 | 1009.1 |
| 20260502234808 | 50 | 189 | 0.0 | 1.0 | 0.00 | 0.06 | 0.06 | 87 | 1009.1 |
| 20260502234305 | 50 | 103 | 1.0 | 2.0 | 0.00 | 0.06 | 0.06 | 86 | 1009.0 |
| 20260502233801 | 51 | 75 | 1.0 | 2.0 | 0.00 | 0.06 | 0.06 | 86 | 1009.1 |
| 20260502233258 | 51 | 105 | 2.0 | 2.0 | 0.00 | 0.06 | 0.06 | 86 | 1009.1 |
| 20260502232754 | 51 | 205 | 0.0 | 1.0 | 0.00 | 0.06 | 0.06 | 85 | 1009.2 |
| 20260502232251 | 51 | 129 | 1.0 | 2.0 | 0.00 | 0.06 | 0.06 | 85 | 1009.1 |
| 20260502231748 | 51 | 114 | 2.0 | 2.0 | 0.00 | 0.06 | 0.06 | 86 | 1009.0 |
| 20260502231246 | 51 | 184 | 0.0 | 2.0 | 0.00 | 0.06 | 0.06 | 85 | 1009.0 |
| 20260502230744 | 51 | 199 | 2.0 | 2.0 | 0.00 | 0.06 | 0.06 | 85 | 1009.3 |
| 20260502230242 | 51 | 106 | 2.0 | 3.0 | 0.00 | 0.06 | 0.06 | 85 | 1009.1 |
| 20260502225738 | 51 | 184 | 0.0 | 2.0 | 0.00 | 0.06 | 0.06 | 85 | 1009.2 |
| 20260502225235 | 51 | 217 | 1.0 | 2.0 | 0.00 | 0.06 | 0.06 | 86 | 1009.0 |
| 20260502224731 | 51 | 182 | 2.0 | 3.0 | 0.00 | 0.06 | 0.06 | 86 | 1009.0 |
| 20260502224228 | 51 | 132 | 0.0 | 2.0 | 0.00 | 0.06 | 0.06 | 86 | 1008.7 |
| 20260502223726 | 51 | 76 | 0.0 | 1.0 | 0.00 | 0.06 | 0.06 | 86 | 1008.9 |
| 20260502223224 | 51 | 181 | 2.0 | 4.0 | 0.00 | 0.06 | 0.06 | 86 | 1008.8 |
| 20260502222721 | 51 | 181 | 2.0 | 3.0 | 0.00 | 0.06 | 0.06 | 86 | 1008.8 |
| 20260502222218 | 51 | 183 | 2.0 | 2.0 | 0.00 | 0.06 | 0.06 | 85 | 1008.8 |
| 20260502221714 | 51 | 109 | 2.0 | 2.0 | 0.00 | 0.06 | 0.06 | 86 | 1009.0 |
| 20260502221210 | 51 | 129 | 2.0 | 2.0 | 0.00 | 0.06 | 0.06 | 86 | 1009.1 |
| 20260502220706 | 50 | 121 | 2.0 | 2.0 | 0.00 | 0.06 | 0.06 | 87 | 1008.9 |
| 20260502220203 | 50 | 103 | 3.0 | 5.0 | 0.00 | 0.06 | 0.06 | 87 | 1009.0 |
| 20260502215700 | 50 | 110 | 2.0 | 2.0 | 0.00 | 0.06 | 0.06 | 87 | 1009.0 |
| 20260502215157 | 50 | 181 | 1.0 | 4.0 | 0.00 | 0.06 | 0.06 | 87 | 1009.2 |
| 20260502214654 | 50 | 175 | 0.0 | 3.0 | 0.00 | 0.06 | 0.06 | 87 | 1009.2 |
| 20260502214151 | 50 | 234 | 1.0 | 2.0 | 0.00 | 0.06 | 0.06 | 86 | 1009.0 |
| 20260502213648 | 50 | 168 | 0.0 | 2.0 | 0.00 | 0.06 | 0.06 | 86 | 1009.3 |
| 20260502213146 | 50 | 254 | 1.0 | 4.0 | 0.00 | 0.06 | 0.06 | 86 | 1009.1 |
| 20260502212644 | 50 | 282 | 2.0 | 4.0 | 0.00 | 0.06 | 0.06 | 86 | 1009.1 |
| 20260502212142 | 50 | 225 | 1.0 | 4.0 | 0.00 | 0.06 | 0.06 | 86 | 1008.9 |